This is the latest recevied weather packets stored in our database for station/object ED5YAW-10. If no packets are shown the sender has not sent any weather packets the latest 10 day(s).
| Time | Temp. | Humidity | Pressure | Rain* | Wind** | Luminosity | Snow |
|---|---|---|---|---|---|---|---|
| 1777822849 | 21.11° C | 58% | 874 hPa | - | - | - | - |
| 1777822845 | 21.11° C | 58% | 874 hPa | - | - | - | - |
| 1777822241 | 21.67° C | 50% | 874 hPa | - | - | - | - |
| 1777821641 | 22.22° C | 51% | 874 hPa | - | - | - | - |
| 1777821637 | 22.22° C | 51% | 874 hPa | - | - | - | - |
| 1777821159 | 22.78° C | 56% | 874 hPa | - | - | - | - |
| 1777821037 | 22.78° C | 56% | 874 hPa | - | - | - | - |
| 1777821033 | 22.78° C | 56% | 874 hPa | - | - | - | - |
| 1777820432 | 21.67° C | 60% | 874 hPa | - | - | - | - |
| 1777820428 | 21.67° C | 60% | 874 hPa | - | - | - | - |
| 1777819828 | 20.56° C | 64% | 874 hPa | - | - | - | - |
| 1777819824 | 20.56° C | 64% | 874 hPa | - | - | - | - |
| 1777819223 | 21.11° C | 61% | 874 hPa | - | - | - | - |
| 1777819219 | 21.11° C | 61% | 874 hPa | - | - | - | - |
| 1777818619 | 21.11° C | 62% | 874 hPa | - | - | - | - |
| 1777818615 | 21.11° C | 62% | 874 hPa | - | - | - | - |
| 1777818015 | 20.56° C | 66% | 874 hPa | - | - | - | - |
| 1777818010 | 20.56° C | 66% | 874 hPa | - | - | - | - |
| 1777817410 | 21.11° C | 67% | 874 hPa | - | - | - | - |
| 1777817406 | 21.11° C | 67% | 874 hPa | - | - | - | - |
| 1777816806 | 20° C | 76% | 874 hPa | - | - | - | - |
| 1777816802 | 20° C | 76% | 874 hPa | - | - | - | - |
| 1777816202 | 20° C | 83% | 874 hPa | - | - | - | - |
| 1777816198 | 20° C | 83% | 874 hPa | - | - | - | - |
| 1777815594 | 19.44° C | 90% | 875 hPa | - | - | - | - |
* Rain since midnight (hover to see other rain measurements)
** Current wind speed in m/s (hover to see current wind gust speed)